Theta_e
325 321 333 326 310 308 302 303 309 308 310 315 318 317 316 320 316 313 334 329 326 337 343 345 343 344 347 348 348 347 346 346 345 344 343 340 338 338 337 335 335 335 334 334 334 333 333 332 331
320 318 326 321 305 300 301 308 305 309 312 318 320 320 319 317 327 328 329 331 328 339 343 343 341 344 348 348 347 347 346 345 343 341 340 338 337 336 337 335 335 334 334 334 334 333 332 330 329
317 318 316 311 305 300 301 308 309 311 313 312 315 324 323 321 329 332 335 330 330 340 343 342 341 346 348 347 346 345 345 343 341 339 338 337 336 336 336 334 334 334 334 334 333 331 329 328 329
315 317 316 305 302 306 306 309 310 310 313 317 318 316 326 331 331 335 336 328 333 340 343 340 342 347 347 346 346 345 344 342 339 338 337 336 335 335 335 334 333 333 333 332 330 328 328 328 329
316 314 306 302 302 307 310 311 310 309 312 314 319 315 320 331 334 336 334 328 332 338 341 341 342 345 346 345 345 344 343 341 340 339 337 337 335 335 333 333 332 332 332 329 327 327 328 328 329
310 310 300 297 301 306 310 312 312 311 313 313 313 314 317 331 333 335 334 329 334 337 341 340 336 339 342 343 343 343 341 340 339 339 338 337 335 334 333 333 332 331 330 328 327 327 328 329 329
304 304 297 298 299 301 306 312 310 311 312 312 316 312 320 327 334 335 334 331 333 337 341 341 340 340 335 338 339 339 339 338 338 337 337 335 335 335 334 334 332 330 329 328 328 328 329 329 330
306 304 296 298 297 298 306 309 312 311 310 318 318 311 314 328 333 333 334 331 331 335 338 340 339 339 341 342 332 334 335 335 336 335 333 331 331 330 331 330 332 332 331 329 329 329 330 330 331
309 297 292 294 296 299 308 306 312 314 312 315 321 322 326 330 330 329 330 329 329 334 335 338 337 337 337 340 336 330 330 331 331 330 326 326 332 329 329 327 331 331 331 330 330 331 331 331 329
301 295 294 300 302 301 305 306 308 308 310 311 317 326 326 329 327 325 326 326 326 328 333 335 335 335 336 337 339 338 335 334 333 333 332 331 331 331 328 325 325 327 327 327 328 329 330 326 329
298 293 297 298 301 301 302 305 309 306 305 310 311 317 324 323 325 325 327 328 326 327 329 330 332 334 335 335 337 336 334 333 332 333 332 331 331 332 331 330 329 329 320 329 329 330 330 329 330
295 297 298 299 300 299 297 302 305 307 308 312 313 316 321 322 323 325 327 328 326 325 326 328 331 333 334 335 336 335 332 332 331 332 332 330 328 329 328 328 329 331 332 332 332 331 330 331 330
296 297 299 300 301 300 301 298 299 303 310 313 313 317 319 323 325 327 328 329 328 325 326 328 330 333 335 332 333 332 332 332 331 331 332 331 329 328 328 328 328 330 332 332 331 330 330 331 331
298 298 298 300 299 300 298 299 299 300 306 310 311 313 319 321 324 325 325 325 326 327 327 328 328 334 333 331 331 329 333 333 331 331 332 332 330 329 328 327 328 330 332 331 331 330 330 331 331
299 293 296 298 299 298 300 295 296 302 304 307 309 310 320 320 324 325 325 324 326 329 329 326 328 331 331 330 330 330 334 333 331 331 332 332 331 329 329 329 330 331 333 332 332 331 331 330 331
294 294 289 296 297 299 298 290 297 302 304 304 307 312 319 320 321 325 325 326 327 328 327 327 329 330 331 331 330 329 334 333 331 331 331 331 330 330 330 330 331 333 333 332 331 331 330 330 330
292 288 290 292 297 297 296 292 299 302 300 301 306 312 317 317 318 322 324 325 327 328 328 329 329 329 330 331 329 330 333 334 333 332 331 331 331 331 331 332 333 334 332 332 331 330 330 328 329
286 286 288 288 293 295 293 293 298 299 299 298 300 306 307 312 315 318 325 326 327 328 328 328 329 330 330 330 329 330 332 333 334 333 331 332 332 332 331 332 333 333 331 331 331 329 329 329 330
291 289 287 290 293 293 293 294 295 298 298 296 297 301 301 306 309 318 320 327 327 327 326 326 327 328 329 327 325 327 327 331 332 333 332 332 332 332 332 332 332 332 327 327 326 325 324 324 326
291 288 287 292 294 294 293 290 294 296 296 296 296 299 299 302 305 307 311 318 324 326 328 327 327 327 328 327 328 329 330 331 331 332 332 333 333 332 332 332 331 327 326 326 326 325 325 325 327
291 287 286 287 293 295 292 288 290 294 295 296 297 299 299 299 301 303 304 307 312 316 321 326 328 328 328 329 328 328 329 329 328 330 331 333 333 333 332 331 328 328 327 326 327 327 326 325 328
287 293 292 289 290 284 290 281 285 289 289 292 295 296 298 300 300 300 303 304 304 308 316 317 319 321 323 327 326 327 326 324 326 327 328 330 330 330 330 329 328 328 329 329 330 331 329 327 323
290 294 293 291 289 288 286 284 285 287 286 289 294 294 296 299 300 299 299 303 304 305 307 311 312 313 314 319 323 324 323 325 326 325 325 327 325 326 326 326 328 330 329 331 331 330 328 327 326
294 292 292 291 288 283 284 285 282 285 286 290 294 295 296 297 299 300 301 302 302 303 304 306 308 308 310 310 311 312 314 316 318 320 321 320 318 319 319 320 320 322 323 324 325 327 326 327 326
293 290 285 283 282 280 285 283 283 288 291 292 293 296 298 298 298 299 299 301 300 299 302 303 304 304 306 306 307 307 308 310 311 313 313 315 314 315 314 315 315 315 316 318 321 322 322 324 323
288 288 283 276 278 280 285 280 284 291 292 294 296 297 299 299 299 298 298 299 300 300 299 301 302 301 303 304 304 305 307 307 307 308 310 311 311 310 311 312 312 313 313 314 316 316 316 317 318
288 285 289 283 280 280 282 284 289 291 290 292 292 294 293 294 297 300 299 299 299 300 299 299 301 302 302 302 303 304 305 306 307 307 308 307 308 308 308 309 309 309 310 311 312 312 310 312 312
289 291 284 286 277 275 279 280 281 286 288 290 290 291 291 294 293 294 296 297 298 298 299 299 300 300 301 302 302 303 304 305 306 306 306 305 305 305 304 305 305 305 306 307 307 306 306 306 305
288 287 286 286 284 278 277 280 288 288 290 288 288 289 290 291 292 293 294 295 296 296 298 297 298 298 298 298 298 300 301 302 303 304 303 304 303 303 302 302 302 302 303 304 304 304 303 303 301
288 287 286 282 279 282 281 281 291 290 290 289 288 289 290 291 292 293 293 294 294 294 295 295 296 298 298 298 298 298 299 300 301 301 302 302 301 301 301 301 300 301 301 302 302 301 300 299 298
Wind_Speed
12 7 2 4 7 5 12 8 8 8 4 1 2 4 6 9 4 3 1 11 19 21 21 21 20 20 18 17 18 17 15 15 16 15 14 13 12 12 13 12 12 10 12 12 11 10 10 9 9
9 3 3 1 8 12 14 13 14 12 5 0 4 6 7 8 1 4 9 10 21 20 20 20 18 20 18 18 18 18 16 16 15 14 13 13 12 11 12 12 12 11 11 11 10 9 9 8 8
5 4 4 5 11 19 13 9 13 6 6 8 4 3 3 1 1 2 1 15 22 20 20 18 16 19 19 19 17 16 16 15 15 13 13 13 13 12 12 10 10 10 9 9 9 8 8 7 6
2 4 3 11 22 18 20 7 6 5 5 5 3 6 3 1 1 0 10 18 20 20 19 18 17 18 18 18 18 17 16 15 15 13 13 13 13 12 12 11 9 9 8 8 7 7 6 6 5
2 3 12 16 27 22 9 8 6 5 1 3 5 2 3 4 4 8 14 18 20 17 18 19 15 16 18 17 17 17 16 15 14 14 13 13 12 11 10 9 9 8 7 6 5 5 4 4 3
6 4 12 22 24 15 12 12 12 13 13 7 7 10 5 5 8 11 15 18 19 15 18 18 12 10 14 16 15 16 15 15 14 14 13 12 11 10 10 9 8 7 6 5 4 2 1 2 3
10 10 19 24 19 17 9 11 15 15 19 18 7 11 3 7 8 12 15 17 17 14 16 16 17 14 8 9 11 13 14 14 14 13 13 12 10 9 8 8 8 6 5 4 3 1 2 3 4
4 5 12 14 15 22 13 12 11 13 16 10 5 9 15 7 13 13 15 17 17 15 15 17 16 15 14 13 8 9 10 11 12 12 11 12 11 9 9 7 6 5 3 3 2 2 3 4 5
1 7 10 13 16 12 7 8 8 5 10 11 5 8 5 11 15 15 16 17 17 16 16 15 14 15 14 13 11 8 7 8 8 9 7 8 9 10 10 5 5 2 1 2 3 5 5 5 7
7 5 6 6 4 7 9 12 11 10 11 12 10 7 0 14 16 18 20 20 21 21 19 16 15 14 12 10 11 11 10 9 9 9 10 7 8 7 5 4 3 2 2 4 5 6 6 7 4
2 7 7 9 13 12 13 14 14 14 18 12 12 15 6 10 14 16 18 19 19 19 16 17 16 15 13 10 9 6 5 5 6 8 7 6 5 5 5 4 5 5 5 5 5 4 4 4 4
7 9 9 7 11 9 12 15 18 18 15 12 13 14 10 15 15 18 18 18 20 20 19 17 17 15 13 8 9 8 6 6 5 6 8 5 4 5 4 4 4 4 4 4 4 3 4 5 5
12 12 9 9 13 14 15 19 21 25 19 13 14 13 13 16 17 16 17 16 17 19 18 18 17 15 13 10 8 7 8 7 7 6 8 6 6 5 5 4 4 4 4 4 4 4 4 4 5
8 15 17 18 17 18 18 18 17 22 22 20 15 15 15 16 18 13 17 17 18 19 19 18 17 15 12 8 9 8 8 8 7 6 7 9 6 5 5 5 5 5 4 4 4 4 4 4 4
11 13 17 18 17 11 10 21 20 20 18 18 21 14 14 13 15 19 15 15 19 16 17 17 15 13 12 10 9 7 8 7 7 6 8 8 7 7 6 5 5 5 4 5 5 5 5 5 5
7 7 8 5 3 6 10 17 9 4 10 16 15 14 3 8 14 13 13 13 13 13 15 16 13 13 13 11 8 6 8 8 7 7 7 9 9 9 7 6 6 5 5 5 5 5 5 5 5
3 11 17 18 6 12 14 6 8 11 9 7 7 8 6 2 8 6 6 9 12 15 15 16 15 13 13 11 8 8 10 8 7 7 7 9 10 9 8 7 6 6 5 6 5 5 6 6 6
13 11 11 15 5 10 13 7 10 13 14 12 12 6 13 10 8 8 10 10 14 14 14 13 12 13 12 9 6 6 7 8 7 7 7 9 8 9 9 8 8 7 6 6 6 7 5 6 7
13 14 15 15 8 5 10 13 9 11 16 15 12 5 9 7 11 5 6 8 7 10 11 11 10 11 9 7 6 5 7 8 8 8 10 10 9 10 10 8 8 8 6 7 6 5 7 6 6
11 13 9 10 5 7 3 9 8 14 12 14 11 8 7 9 17 19 14 2 3 5 9 9 10 9 9 6 6 5 8 7 6 7 8 10 11 11 10 10 8 7 6 7 8 8 4 5 5
4 5 7 6 3 7 9 5 3 8 16 15 5 15 15 17 19 18 19 15 12 8 2 5 9 9 9 9 7 4 4 3 4 5 6 9 12 11 10 10 7 7 6 7 7 7 9 7 4
6 8 4 7 3 2 5 3 4 6 10 8 8 20 18 17 21 21 17 16 14 12 7 10 9 6 1 6 7 9 6 6 3 3 3 3 5 7 7 8 6 6 5 8 7 6 7 6 4
8 15 5 7 4 2 6 3 4 4 6 7 16 17 15 18 20 19 17 12 11 9 9 10 10 10 11 8 3 1 2 1 1 1 3 1 2 3 3 4 5 5 3 6 7 7 6 5 4
16 7 5 4 2 4 10 2 5 4 4 4 9 15 15 11 17 19 8 6 9 11 11 8 8 6 9 7 8 8 6 3 4 4 2 2 2 2 4 5 4 6 3 2 3 3 2 4 5
14 6 1 1 3 5 10 6 3 8 8 4 5 9 6 9 11 9 12 14 11 15 11 9 9 8 9 9 5 9 8 8 5 2 3 3 1 2 3 4 4 3 4 3 2 1 1 1 3
10 6 4 4 3 4 8 6 6 6 4 3 3 6 5 7 8 9 4 7 10 10 12 11 9 9 12 7 4 7 4 4 2 2 0 3 2 3 1 3 4 3 3 2 1 2 2 2 2
5 5 4 1 2 2 3 0 1 3 9 10 11 10 11 10 7 5 6 4 7 5 6 6 9 11 8 8 8 6 8 7 2 4 4 4 3 3 3 2 2 2 1 2 3 2 4 4 4
4 4 2 1 1 4 4 3 5 4 6 8 10 10 9 9 10 9 7 6 2 1 3 2 1 2 3 5 5 6 7 5 2 3 6 5 4 5 4 1 3 2 1 3 4 5 4 5 4
5 2 3 1 3 1 3 4 2 2 4 7 8 7 8 10 10 9 8 8 6 6 6 4 3 3 3 3 3 3 3 4 4 3 2 3 3 4 5 4 3 2 2 3 4 5 4 6 6
2 4 4 3 2 3 2 5 3 5 5 6 7 7 7 8 9 8 8 8 8 8 8 6 5 4 3 1 3 3 2 1 1 3 2 3 3 3 4 4 5 3 3 4 5 5 4 5 6
Wind_Direction
311 310 243 228 240 244 242 226 235 205 229 163 133 217 251 312 216 357 70 152 145 159 157 162 161 160 162 149 146 146 146 144 142 137 135 133 130 128 120 118 115 107 113 112 104 97 90 80 72
311 267 222 217 245 237 244 227 218 230 193 236 266 239 244 263 305 91 137 171 159 157 157 164 164 161 157 151 147 140 140 138 138 138 141 140 138 139 131 127 120 120 113 109 107 99 90 81 71
284 280 233 231 234 238 251 212 250 258 261 237 255 255 302 330 86 140 102 164 160 159 164 160 164 164 156 151 145 145 143 142 143 146 147 144 143 141 140 134 129 125 120 111 105 99 89 77 67
265 192 213 242 237 239 258 256 273 243 206 208 226 248 197 339 307 293 150 164 162 158 166 146 163 163 157 155 150 149 143 145 146 150 150 149 148 149 143 143 135 125 115 110 107 97 85 71 59
217 240 239 239 249 251 231 294 277 257 217 203 212 223 248 163 152 137 157 166 167 163 166 160 162 162 159 159 153 151 148 149 149 152 152 149 146 147 145 138 132 127 122 116 106 94 74 57 40
189 253 233 243 248 246 262 271 268 266 272 274 255 270 271 125 160 151 160 170 163 167 161 161 157 164 163 161 158 151 150 150 151 153 148 148 150 151 152 142 141 142 138 131 123 107 54 9 359
242 229 245 257 268 271 270 273 262 264 267 260 260 269 314 189 160 155 161 167 164 167 169 164 168 170 155 157 155 153 154 153 153 149 147 150 152 153 150 148 159 153 155 157 159 192 307 322 325
267 263 257 252 262 259 250 266 273 264 267 312 247 251 254 178 155 154 161 162 170 170 177 171 170 174 182 177 154 151 154 154 156 158 160 170 169 157 158 159 177 175 171 188 217 268 294 308 314
195 248 263 267 261 269 235 249 284 272 269 267 234 273 1 140 149 156 163 168 172 174 176 178 171 176 182 183 167 151 151 153 148 148 148 162 174 174 164 162 143 188 267 287 286 290 302 316 268
223 249 263 295 277 305 291 283 303 285 273 264 258 238 149 157 166 172 174 174 178 178 178 185 177 174 180 177 176 180 170 177 183 183 176 184 177 179 190 159 188 252 285 279 282 293 298 260 284
243 255 314 292 308 304 280 279 277 286 264 269 321 336 188 196 186 189 187 183 181 179 177 184 181 182 176 176 174 184 181 183 187 189 187 196 190 182 208 208 204 218 188 237 222 235 252 285 280
282 272 282 305 297 285 278 283 269 263 272 311 305 302 244 203 207 197 195 186 181 181 182 183 187 181 179 167 175 185 190 187 189 189 190 189 203 206 216 223 219 222 222 245 248 255 267 270 261
261 287 301 310 299 292 278 250 260 269 261 284 315 307 248 222 210 208 194 196 182 186 185 186 183 182 178 165 182 181 194 196 192 192 194 203 207 214 218 223 228 235 235 239 244 245 254 261 264
312 295 292 292 276 276 266 271 251 248 258 261 285 302 264 235 214 206 202 187 190 187 186 182 185 181 175 168 178 176 193 195 198 200 204 208 217 215 218 226 229 232 232 235 249 259 262 264 263
273 283 290 277 267 263 261 251 245 253 264 261 263 295 271 250 225 208 211 202 186 189 186 182 181 176 173 171 174 193 198 196 199 208 209 212 216 220 225 229 235 236 236 247 251 253 253 259 251
288 282 317 321 279 230 219 270 281 250 272 252 264 294 284 262 238 223 216 210 196 184 180 184 178 177 185 190 176 198 210 206 203 207 210 213 218 223 225 231 236 240 240 244 253 256 259 260 263
230 303 303 309 275 270 217 288 93 35 3 334 337 338 3 223 228 191 184 193 193 184 178 181 183 180 182 189 179 199 214 218 219 215 217 219 221 224 230 237 243 239 241 240 247 251 250 266 262
308 306 291 279 301 287 243 229 59 45 34 0 355 339 36 24 343 205 178 192 188 183 187 190 191 187 183 183 178 203 207 214 225 230 229 227 227 226 228 238 243 236 238 239 235 247 252 259 264
303 290 284 283 279 250 231 222 62 39 34 14 2 343 35 19 13 95 200 184 188 174 186 194 185 187 180 171 171 188 195 212 224 227 226 226 228 229 230 239 244 233 231 235 235 236 239 248 247
307 281 302 309 188 220 86 79 85 52 48 26 354 46 34 34 42 40 26 21 245 189 196 188 197 188 192 189 195 205 208 223 227 227 231 232 231 228 231 234 238 221 226 230 230 217 225 233 202
319 300 305 275 87 36 108 98 47 58 52 14 339 68 51 44 46 37 24 21 30 25 309 207 200 190 198 194 184 167 169 183 199 221 237 241 239 236 233 239 231 230 217 229 227 220 225 244 215
289 9 348 338 186 130 355 93 41 35 50 336 8 47 48 41 53 47 14 13 19 11 26 51 53 62 12 191 198 193 201 211 217 216 248 259 248 249 254 250 242 248 247 242 236 223 222 215 219
285 327 323 359 42 135 24 100 15 7 14 324 42 41 48 47 52 46 18 353 353 16 13 38 36 50 32 13 349 181 203 224 202 202 236 247 92 53 33 358 317 278 248 254 243 200 197 200 210
292 295 219 158 323 44 349 334 34 2 300 351 54 68 50 33 49 58 10 340 347 20 11 28 44 26 53 36 10 68 63 71 62 17 16 83 43 46 32 15 21 344 5 14 339 300 271 212 234
338 343 306 90 39 45 343 56 40 333 333 350 22 29 80 71 69 48 36 13 359 20 2 8 29 11 40 43 18 67 27 24 36 359 35 46 56 79 39 22 12 13 322 349 51 350 198 241 239
318 0 13 12 7 24 8 23 8 327 3 55 345 319 28 53 68 77 65 19 17 5 6 358 19 31 33 2 3 17 60 82 71 109 139 81 61 69 1 46 53 336 357 358 38 99 83 91 90
352 33 346 61 142 92 32 183 116 352 45 48 49 43 41 57 74 95 75 60 13 352 31 0 1 7 18 15 23 354 28 20 11 72 97 88 91 108 91 82 104 113 69 115 107 107 90 74 70
309 346 272 27 12 91 85 43 62 42 53 72 65 65 58 67 70 74 82 80 87 360 45 39 263 360 3 23 0 356 347 355 343 54 60 52 51 45 66 188 79 61 67 113 105 87 85 104 85
337 358 29 357 333 117 132 109 54 90 99 85 72 66 73 64 54 54 58 62 60 68 76 64 29 23 359 12 338 341 324 341 10 36 66 85 112 155 167 103 87 63 69 61 90 99 105 109 109
266 327 308 305 142 39 49 118 79 105 92 93 80 67 66 69 72 59 48 45 51 47 51 49 41 46 19 163 192 194 220 305 41 62 84 168 158 169 134 142 144 148 127 124 122 119 108 111 109